EW3221 Weather Reports


time (UTC)temp
F
wind
direction
speed
knots
gust
knots
rain 1hr
in
rain 24hr
in
rain mn
in
humidity
%
barometer
mb
20260505041558 60 173 0.0 2.6 0.00 0.00 0.00 66 1010.9
20260505040104 60 165 0.0 1.7 0.00 0.00 0.00 65 1010.9
20260505034556 61 186 0.0 2.6 0.00 0.00 0.00 63 1010.7
20260505033057 61 180 0.0 1.7 0.00 0.00 0.00 63 1010.7
20260505031600 62 163 0.0 2.6 0.00 0.00 0.00 61 1010.8
20260505030100 62 178 0.0 1.7 0.00 0.00 0.00 60 1010.7
20260505024555 62 184 0.0 3.5 0.00 0.00 0.00 60 1010.7
20260505023055 62 167 0.0 5.2 0.00 0.00 0.00 59 1010.7
20260505021552 62 171 0.9 4.3 0.00 0.00 0.00 59 1010.6
20260505020053 62 161 0.0 2.6 0.00 0.00 0.00 59 1010.6
20260505014604 62 172 0.0 3.5 0.00 0.00 0.00 57 1010.6
20260505013051 63 144 0.0 0.0 0.00 0.00 0.00 56 1010.5
20260505011553 64 151 0.0 1.7 0.00 0.00 0.00 54 1010.3
20260505010050 65 150 0.0 0.9 0.00 0.00 0.00 52 1010.2
20260505004555 66 159 0.0 2.6 0.00 0.00 0.00 51 1010.0
20260505003053 66 157 0.0 1.7 0.00 0.00 0.00 50 1010.0
20260505001549 66 135 0.0 2.6 0.00 0.00 0.00 50 1009.9
20260505000055 67 175 0.0 2.6 0.00 0.00 0.00 48 1010.0
20260504234549 68 132 0.0 4.3 0.00 0.00 0.00 47 1009.9
20260504233048 69 153 0.9 4.3 0.00 0.00 0.00 47 1009.7
20260504231547 70 217 0.0 5.2 0.00 0.00 0.00 45 1009.8
20260504230050 72 158 0.9 7.8 0.00 0.00 0.00 42 1009.8
20260504224548 72 169 0.0 5.2 0.00 0.00 0.00 43 1009.6
20260504223046 73 181 1.7 7.0 0.00 0.00 0.00 40 1009.7
20260504221545 73 146 0.9 9.6 0.00 0.00 0.00 42 1009.6
20260504220046 74 158 0.0 13.0 0.00 0.00 0.00 39 1009.4
20260504214552 75 234 1.7 9.6 0.00 0.00 0.00 40 1009.6
20260504213042 75 169 1.7 8.7 0.00 0.00 0.00 39 1009.5
20260504211541 76 180 1.7 7.0 0.00 0.00 0.00 36 1009.7
20260504210054 77 252 2.6 7.8 0.00 0.00 0.00 37 1009.8
20260504204553 77 130 1.7 6.1 0.00 0.00 0.00 40 1009.9
20260504203041 77 232 2.6 13.0 0.00 0.00 0.00 36 1009.9
20260504201536 78 86 0.0 6.1 0.00 0.00 0.00 42 1010.1
20260504200033 78 111 0.9 6.1 0.00 0.00 0.00 36 1010.3
20260504194532 78 192 2.6 7.0 0.00 0.00 0.00 35 1010.4
20260504193029 78 108 4.3 10.4 0.00 0.00 0.00 36 1010.7
20260504191528 78 245 1.7 8.7 0.00 0.00 0.00 35 1011.0
20260504190025 78 144 0.9 7.8 0.00 0.00 0.00 39 1011.1
20260504184523 76 188 0.9 7.8 0.00 0.00 0.00 35 1011.4
20260504183020 77 248 0.0 10.4 0.00 0.00 0.00 37 1011.6
20260504181518 77 163 1.7 8.7 0.00 0.00 0.00 39 1011.8
20260504180016 75 199 0.9 7.0 0.00 0.00 0.00 41 1012.0
20260504174514 75 286 0.9 9.6 0.00 0.00 0.00 39 1012.0
20260504173010 76 169 2.6 8.7 0.00 0.00 0.00 41 1012.4
20260504171508 75 64 2.6 7.8 0.00 0.00 0.00 43 1012.6
20260504160103 73 243 1.7 7.8 0.00 0.00 0.00 36 1013.5
20260504081535 47 153 0.0 0.9 0.00 0.00 0.00 83 1015.6
20260504050009 41 264 0.0 0.0 0.00 0.00 0.00 85 1015.8
20260504044513 40 264 0.0 0.0 0.00 0.00 0.00 84 1015.7
20260504043011 40 264 0.0 0.0 0.00 0.00 0.00 83 1015.7